Weather Roundup
Issued by NWS

Home | Current Version | Previous Version | Graphics & Text | Print | Product List | Glossary Off
Versions: 1 2 3 4 5 6 7 8 9 10 11 12 13 14 15 16 17 18 19 20 21 22 23 24 25 26 27 28 29 30 31 32 33 34 35 36 37 38 39 40 41 42 43 44 45 46 47 48 49 50

000
NZUS93 KARX 300359
HRRWXR

CURRENT HOURLY OBSERVATIONS ACROSS
MUCH OF THE UPPER MISSISSIPPI VALLEY
NATIONAL WEATHER SERVICE LA CROSSE WI
1100 PM CDT WED OCT 29 2014


...SOUTHEAST MINNESOTA...


CITY           SKY/WX    TMP DP  RH WIND       PRES   REMARKS
ROCHESTER      MOCLDY    32  30  92 S5        30.10F WCI  27
ROCHESTER/MAYO FAIR      36  30  80 SE3       30.10F
WINONA         PTCLDY    36  34  93 CALM      30.12S
AUSTIN         MOCLDY    34  30  86 SE3       30.09S
ALBERT LEA     CLOUDY    36  32  87 SE5       30.08F WCI  32
DODGE CENTER   CLOUDY    34  32  93 S5        30.09S WCI  30
PRESTON        MOCLDY    34  30  85 CALM      30.10S
OWATONNA       CLOUDY    36  30  80 SE6       30.08S WCI  31
FARIBAULT      CLOUDY    34  30  86 CALM      30.08F
$$

...ELSEWHERE IN MINNESOTA...


CITY           SKY/WX    TMP DP  RH WIND       PRES   REMARKS
MINNEAPOLIS    CLOUDY    38  32  79 SE3       30.09S
INTNL FALLS    CLOUDY    35  33  92 SW5       30.04S WCI  31
DULUTH         CLOUDY    37  31  78 W6        30.05S WCI  32
RED WING       MOCLDY    34  30  86 CALM      30.10R
REDWOOD FALLS  CLOUDY    40  31  70 SE7       30.04F
MANKATO        CLOUDY    39  28  65 SE7       30.07S WCI  34
WORTHINGTON    CLOUDY    43  30  61 S9        30.04S
FAIRMONT       CLOUDY    37  27  65 S6        30.07S WCI  33
$$

...SOUTHWEST WISCONSIN...


CITY           SKY/WX    TMP DP  RH WIND       PRES   REMARKS
LA CROSSE      PTCLDY    37  32  82 SE5       30.12S WCI  33
PRAIRIE DU CHI PTCLDY    34  30  87 CALM      30.14R
BOSCOBEL       PTCLDY    32  29  88 CALM      30.14S
LONE ROCK      NOT AVBL
PLATTEVILLE    CLEAR     37  31  81 S3        30.14R
FORT MC COY    MOCLDY    30  29  94 CALM      30.13R
VIROQUA        FAIR      35  32  87 CALM      30.11R
WIS DELLS      CLEAR     33  30  89 CALM      30.12R
$$

...ELSEWHERE IN WISCONSIN...


CITY           SKY/WX    TMP DP  RH WIND       PRES   REMARKS
MILWAUKEE      CLEAR     37  30  75 CALM      30.12F
MADISON        CLEAR     33  30  88 CALM      30.13R
GREEN BAY      CLOUDY    44  36  73 W6        30.11R
EAU CLAIRE     NOT AVBL
BLACK RVR FLS  FAIR      28  28 100 CALM      30.11S
MEDFORD        CLOUDY    37  32  83 W3        30.08S
WAUSAU         CLEAR     35  31  85 CALM      30.08S
WIS RAPIDS     PTCLDY    31  28  89 CALM      30.12R
MARSHFIELD     PTCLDY    32  30  92 CALM      30.09S
RICE LAKE      MOCLDY    35  31  87 CALM      30.10F
$$

...NORTHEAST IOWA...


CITY           SKY/WX    TMP DP  RH WIND       PRES   REMARKS
DECORAH        PTCLDY    36  32  87 CALM      30.11S
MASON CITY     MOCLDY    32  30  92 S5        30.11S WCI  27
CHARLES CITY   PTCLDY    34  30  86 SE5       30.12S WCI  30
OELWEIN        PTCLDY    36  32  87 CALM      30.13S
$$

...ELSEWHERE IN IOWA...


CITY           SKY/WX    TMP DP  RH WIND       PRES   REMARKS
DES MOINES     PTCLDY    43  33  68 S6        30.12F
IOWA CITY      CLEAR     35  32  88 CALM      30.15S
FORT DODGE     PTCLDY    37  32  81 CALM      30.10S
$$

...NORTHERN ILLINOIS...


CITY           SKY/WX    TMP DP  RH WIND       PRES   REMARKS
CHICAGO-OHARE  CLEAR     40  32  73 W3        30.13F
CHICAGO-MIDWAY CLEAR     43  32  65 SW3       30.13F
MOLINE         CLEAR     35  30  82 CALM      30.15R
ROCKFORD       CLEAR     35  30  82 SE3       30.15S
PEORIA         CLEAR     38  32  79 CALM      30.16S
$$

NOTE: "FAIR" INDICATES FEW OR NO CLOUDS BELOW 12,000 FEET WITH NO
SIGNIFICANT WEATHER AND/OR OBSTRUCTIONS TO VISIBILITY. WIND
SPEEDS ARE IN MILES-PER-HOUR.



USA.gov is the U.S. government's official web portal to all federal, state and local government web resources and services.